Погода в Бени-Меллаль

Марокко     32°20′17″N   6°21′15″W
темп.,
°C
ветер,
м/с
пор.,
м/с
влажн.,
%
обл.,
%
осадки,
мм/ч
давл.,
гПа
погр.,
м
17 мая, вт
вт1701:00+18ююз22500 0.0 102015
04:00+16зюз11530 0.0 101911
07:00+17всв11470 0.0 102011
10:00+23ссз22300 0.0 1020596
13:00+27сз43240 0.0 10181246
16:00+29ссз32200 0.0 10161942
19:00+28ссз32210 0.0 10151230
22:00+22юв12410 0.0 101812
18 мая, ср
ср1801:00+21юв32270 0.0 101711
04:00+19юв22180 0.0 101612
07:00+19юв33190 0.0 101713
10:00+27сз04120 0.0 10161473
13:00+30зсз35120 0.0 10152698
16:00+31сз44132 0.0 10132598
19:00+30ссз321312 0.0 10131520
22:00+22вюв12290 0.0 101512
19 мая, чт
чт1901:00+21ююв22220 0.0 101612
04:00+21юв33160 0.0 101517
07:00+21юв43165 0.0 101616
10:00+30ююв3695 0.0 10151822
13:00+33ююв877100 0.0 10144195
16:00+34юв87632 0.0 10125069
19:00+32ю6875 0.0 1012787
22:00+26юв551041 0.0 101433
20 мая, пт
пт2001:00+26юв812110 0.0 1014207
04:00+25юв915125 0.0 1013318
07:00+26юв12221330 0.0 1013669
10:00+31ююв15171115 0.0 10141516
13:00+33ююв171298 0.0 10132372
16:00+35ююв139793 0.0 10124829
19:00+32ю14189100 0.0 10122282
22:00+29ююв121811100 0.0 1015607
21 мая, сб
сб2101:00+27ююв7121496 0.0 1015398
04:00+24ююв3419100 0.0 101580
07:00+22юв2226100 0.0 101627
10:00+27ю1518100 0.0 10161039
13:00+33ю8101061 0.0 10143478
16:00+33ююз7810100 0.0 10124750
19:00+28зсз5623100 0.0 1014712
22:00+19з2259100 0.0 101861